Wetbulb
44.80 39.85 35.81 38.47 39.32 37.77 37.05 34.43 32.86 34.34 37.18 36.76 38.02 38.89 41.91 42.55 42.45 42.06 42.70 43.02 44.42 46.64 51.04 49.53 50.46 51.05 49.71 49.04 49.16 50.04 50.22 50.72 51.12 51.49 52.30 52.49 52.14 54.94 56.73 54.97 55.36 59.09 61.45 62.41
40.87 34.43 39.22 42.19 40.02 37.92 36.10 33.40 32.11 34.39 37.35 35.78 34.74 35.29 37.41 38.47 40.73 42.98 43.88 43.04 43.11 43.73 45.63 45.96 46.88 47.77 47.98 49.25 48.69 48.62 49.33 49.09 49.43 50.45 51.89 53.24 55.04 55.14 52.80 50.33 49.31 50.73 54.46 57.49
35.77 35.50 41.62 41.76 37.98 35.68 32.90 32.16 31.33 32.82 34.22 34.61 32.05 30.83 33.84 37.70 38.82 40.43 41.90 44.19 45.05 45.21 45.42 45.69 45.04 45.70 46.45 46.57 47.19 47.86 47.91 47.58 47.78 49.12 51.26 52.80 54.05 53.60 52.23 49.42 47.29 46.58 48.68 50.20
36.50 38.84 39.05 37.50 36.60 37.41 32.89 35.52 35.24 34.26 32.44 27.93 31.74 23.13 29.90 33.46 34.49 36.27 38.96 40.89 42.49 43.65 43.89 44.00 44.15 44.65 45.57 46.30 46.02 46.66 46.34 45.82 46.54 47.66 51.29 52.48 53.10 52.56 51.41 47.37 44.79 44.33 45.44 46.24
31.23 35.58 36.60 35.31 35.97 39.69 35.36 36.87 35.83 34.59 30.77 30.18 28.96 27.13 28.28 31.65 33.05 35.87 37.56 38.26 39.52 40.58 41.08 42.03 42.69 44.45 45.80 44.62 44.84 44.25 43.92 44.09 44.49 46.19 49.68 52.17 51.57 49.22 44.83 43.28 42.61 42.25 42.34 43.17
33.91 38.60 37.84 36.76 38.47 39.72 38.52 35.77 34.49 32.62 30.74 21.93 26.63 26.20 24.46 29.87 33.18 34.61 36.25 37.40 38.43 38.58 39.34 39.93 40.63 41.90 43.24 42.85 42.52 41.84 42.10 41.92 42.54 44.40 46.60 50.13 49.51 45.06 42.78 41.87 41.53 40.74 40.31 40.46
34.15 35.00 37.81 39.05 35.84 38.08 35.44 30.34 23.50 22.24 21.66 17.54 25.75 25.19 30.17 32.71 35.27 35.57 36.71 36.30 37.81 39.26 40.22 40.71 40.47 40.74 40.87 40.44 39.99 39.90 40.70 40.15 40.68 42.13 43.37 45.40 46.11 44.92 44.03 42.50 41.21 39.15 38.64 38.49
28.92 26.10 35.96 39.06 36.21 34.66 34.03 29.99 24.38 16.51 18.62 19.62 27.60 23.53 27.73 34.20 36.25 37.44 37.54 37.77 38.17 38.45 39.23 39.85 40.33 40.34 39.86 38.58 38.73 39.10 39.48 38.89 38.66 39.22 39.35 40.49 42.29 42.79 42.02 41.02 39.79 38.86 37.95 37.28
29.26 28.86 35.99 37.94 38.58 38.86 34.69 30.37 31.87 24.59 16.27 18.43 23.07 26.70 31.36 33.88 35.11 35.30 36.10 36.71 38.21 38.97 39.37 39.56 40.02 39.83 38.60 37.33 37.63 38.20 38.17 38.22 37.29 36.92 36.70 37.35 38.11 38.35 37.68 36.98 37.01 36.12 35.81 36.36
33.25 27.49 33.74 36.86 38.51 37.61 35.34 36.58 27.59 22.62 11.75 12.02 20.89 23.24 25.52 30.66 33.10 35.10 35.01 35.72 37.48 38.60 39.60 39.61 39.41 38.81 37.83 37.13 37.06 37.09 37.40 37.02 36.42 35.41 35.57 35.73 35.41 35.34 35.08 34.77 34.65 34.89 34.77 35.52
35.34 31.17 30.73 35.49 34.24 32.65 33.06 31.03 31.32 29.69 24.84 17.96 15.21 22.34 29.50 31.81 32.92 33.46 34.26 35.45 36.24 37.70 38.33 39.29 39.02 38.41 37.98 36.78 35.84 35.66 35.76 35.86 35.13 34.28 34.21 33.88 33.61 33.46 33.42 33.47 33.23 33.13 33.41 33.92
37.89 33.07 27.40 31.59 33.74 35.68 36.14 33.94 33.23 24.87 21.60 24.38 23.57 25.41 33.89 33.68 33.92 34.19 34.89 36.52 36.80 37.13 38.91 38.78 38.49 37.84 36.81 36.49 35.49 34.80 34.17 34.48 34.58 34.25 33.06 32.82 32.57 32.03 31.73 31.47 31.33 31.80 31.85 32.88
34.17 31.79 26.32 28.14 30.97 32.20 32.51 33.49 34.91 32.40 29.21 25.06 22.68 26.84 33.85 33.53 34.18 34.82 35.19 35.51 36.40 37.22 38.85 38.80 37.58 36.97 37.00 36.46 35.48 34.86 33.87 33.68 33.96 33.20 32.22 31.28 30.92 30.46 30.23 29.89 29.98 30.53 30.87 31.59
35.63 32.34 30.44 23.53 25.79 30.84 30.31 32.15 34.81 34.48 29.81 29.43 28.45 31.28 32.26 32.01 33.18 34.31 35.09 35.41 35.80 37.40 37.36 37.51 37.40 37.11 36.80 36.49 35.66 34.27 34.18 33.56 32.62 31.94 31.40 30.61 29.99 29.66 29.36 29.14 29.11 29.51 30.10 30.42
35.17 28.33 31.81 31.97 31.66 31.31 29.89 30.61 32.38 32.68 33.52 29.35 31.92 31.32 35.57 36.76 37.16 39.00 37.50 35.58 35.88 37.32 37.29 36.86 36.97 37.28 37.10 36.28 35.66 35.40 34.90 33.12 32.57 31.76 31.11 30.86 30.18 29.34 28.48 28.20 28.30 28.69 28.90 29.38
34.57 27.28 29.25 26.80 30.79 30.72 29.05 30.52 29.80 31.11 32.87 32.66 33.56 32.45 39.35 40.43 35.43 35.76 36.61 35.43 35.69 36.99 38.42 38.63 37.59 37.44 36.67 36.78 36.30 35.19 35.17 33.04 32.14 31.86 31.21 30.33 29.35 28.24 27.70 27.58 27.40 27.44 27.85 28.24
28.78 28.03 22.22 13.93 26.85 26.50 17.77 27.02 29.63 30.86 32.44 31.64 29.04 34.43 38.76 37.65 36.69 38.05 37.29 35.86 37.43 38.72 39.14 39.32 40.21 39.03 37.77 37.14 36.69 34.69 35.02 32.13 30.89 31.19 30.58 29.16 28.68 27.27 26.84 26.73 26.38 26.34 26.38 27.02
25.12 23.95 23.45 17.08 14.96 11.20 24.31 31.56 31.88 30.99 33.13 34.41 34.57 36.14 38.04 38.75 40.29 38.62 38.48 39.68 39.56 39.75 39.61 40.14 40.97 39.01 38.23 36.28 35.32 34.94 32.67 30.45 29.95 29.71 28.98 27.91 27.46 26.67 26.04 25.51 25.31 25.25 25.57 25.81
29.96 27.08 15.08 9.37 15.90 18.14 23.73 26.15 27.85 27.80 27.57 33.59 33.78 35.70 37.16 38.69 35.71 35.75 39.37 40.84 41.16 41.76 42.09 42.70 41.33 38.33 36.71 36.12 35.20 33.06 30.50 29.06 27.89 27.75 27.55 27.06 26.94 25.58 24.86 24.41 24.42 24.82 24.55 24.69
30.06 29.54 18.02 8.34 8.16 8.23 21.73 27.89 30.23 32.36 24.08 33.05 33.46 34.44 35.11 33.55 29.24 35.05 39.69 37.46 38.50 39.68 39.22 38.34 35.59 34.09 33.95 33.80 31.80 30.68 28.98 26.64 26.44 26.81 26.23 26.14 26.38 25.66 24.81 24.90 24.18 24.71 24.95 24.69
23.87 23.76 19.36 10.81 14.28 15.33 25.39 28.42 30.84 19.12 23.15 29.88 30.90 32.71 33.75 31.67 34.84 38.10 34.45 34.59 34.60 35.34 35.55 34.10 31.75 31.91 31.04 29.56 28.41 28.72 27.69 26.22 26.54 24.87 24.08 23.96 24.48 24.53 24.88 24.20 23.74 23.59 23.73 24.10
17.96 15.61 12.94 14.05 11.40 9.58 27.51 27.59 26.74 29.33 31.49 31.91 31.19 32.10 31.82 32.23 32.21 33.37 31.75 31.86 31.83 32.04 31.89 30.29 28.21 27.38 26.24 25.37 25.49 26.49 25.67 25.15 23.21 22.38 22.10 21.87 22.04 23.45 23.23 22.87 22.43 22.79 23.09 22.23
15.20 20.85 16.53 19.24 19.25 27.19 29.62 30.90 31.73 30.16 29.63 31.02 31.66 33.56 31.31 30.63 31.92 31.82 30.40 29.97 29.99 29.65 28.80 27.05 25.41 25.01 23.43 22.39 23.22 24.48 23.80 21.06 19.61 19.55 18.91 19.27 20.64 22.10 22.30 22.01 21.24 21.20 21.80 21.33
22.78 25.23 22.86 22.80 24.94 26.59 28.04 27.91 28.12 28.68 29.81 31.42 31.88 30.96 30.81 30.78 30.39 29.05 28.44 28.60 27.61 27.42 26.69 22.72 19.46 21.03 21.04 17.10 19.35 19.31 18.17 18.02 17.23 17.22 17.20 18.32 18.82 19.16 20.31 21.61 21.50 21.24 20.60 20.10
21.74 23.61 17.59 20.49 26.43 27.67 28.12 28.47 28.85 29.78 29.85 29.50 29.43 28.88 28.90 28.82 29.79 28.36 28.17 27.32 26.87 25.43 21.92 19.54 20.50 20.83 20.72 17.81 16.31 14.40 16.48 16.65 17.01 16.34 16.04 17.47 17.68 18.27 17.84 18.52 19.49 19.85 20.26 21.44
23.81 23.04 21.19 21.15 27.33 27.02 28.08 28.72 28.21 27.72 27.53 26.15 23.71 24.95 26.49 26.13 26.53 25.70 25.78 25.23 24.06 24.18 22.05 20.65 20.15 18.27 17.63 15.67 15.34 13.17 15.53 16.43 15.80 14.88 15.30 15.31 15.56 15.55 16.18 16.48 16.98 22.05 22.03 24.40
MSLP
1018.18 1018.96 1019.23 1019.24 1019.21 1019.48 1019.71 1020.20 1020.52 1020.40 1020.20 1020.33 1020.22 1020.20 1019.51 1019.61 1019.76 1019.82 1019.78 1019.71 1019.75 1019.65 1018.57 1018.69 1018.81 1019.05 1019.29 1019.61 1019.78 1019.91 1020.37 1020.66 1021.04 1021.35 1021.48 1021.62 1021.64 1021.79 1021.87 1021.99 1021.93 1021.68 1021.45 1021.41
1019.16 1018.96 1019.05 1019.02 1019.53 1019.89 1020.31 1020.80 1021.26 1021.28 1020.88 1020.88 1021.00 1020.91 1020.33 1020.08 1019.71 1019.50 1019.47 1019.40 1019.15 1019.15 1018.59 1018.53 1018.69 1018.85 1019.01 1019.05 1019.39 1019.95 1020.18 1020.54 1020.84 1021.13 1021.28 1021.37 1021.68 1021.98 1022.03 1022.19 1022.27 1022.15 1021.85 1021.61
1019.14 1019.45 1019.32 1019.41 1019.78 1020.26 1020.68 1020.95 1021.33 1021.58 1021.69 1021.86 1021.95 1021.46 1020.67 1019.75 1019.61 1019.31 1019.02 1018.65 1018.45 1018.40 1018.26 1018.16 1018.49 1018.62 1018.99 1019.27 1019.39 1019.69 1020.03 1020.33 1020.63 1020.97 1021.23 1021.52 1021.74 1022.00 1022.15 1022.30 1022.48 1022.58 1022.37 1022.22
1019.83 1019.79 1019.60 1019.73 1020.06 1020.35 1021.10 1021.14 1021.32 1021.85 1022.39 1023.09 1023.00 1021.93 1021.01 1020.03 1019.75 1019.33 1018.50 1018.24 1018.04 1018.05 1017.92 1018.00 1018.17 1018.40 1018.56 1018.67 1019.33 1019.67 1019.98 1020.31 1020.57 1020.80 1021.07 1021.06 1021.34 1021.87 1022.12 1022.41 1022.76 1022.89 1022.79 1022.64
1019.70 1019.98 1019.89 1020.03 1019.89 1020.21 1020.88 1021.15 1021.76 1022.48 1023.25 1023.76 1024.07 1023.76 1020.74 1020.33 1019.70 1018.72 1017.82 1017.73 1017.44 1017.56 1017.88 1017.80 1017.87 1017.75 1017.75 1018.42 1018.95 1019.46 1020.01 1020.32 1020.55 1020.75 1020.88 1021.08 1021.45 1021.84 1022.30 1022.70 1023.02 1023.18 1023.22 1023.12
1019.80 1019.86 1019.79 1019.77 1020.04 1020.23 1021.03 1021.82 1022.77 1023.52 1024.33 1024.85 1023.97 1023.92 1020.61 1020.12 1019.12 1018.12 1017.55 1017.38 1017.54 1017.47 1017.47 1017.59 1017.52 1017.82 1017.90 1018.15 1018.78 1019.54 1020.07 1020.47 1020.60 1020.69 1020.81 1020.98 1021.27 1021.82 1022.34 1022.74 1023.02 1023.27 1023.37 1023.46
1020.07 1020.00 1019.70 1019.49 1020.21 1020.85 1021.00 1021.84 1023.94 1025.00 1025.65 1025.16 1024.53 1024.15 1019.53 1018.91 1018.19 1017.73 1017.28 1017.57 1017.71 1017.52 1017.42 1017.39 1017.66 1017.99 1018.32 1018.65 1018.94 1019.53 1020.01 1020.42 1020.52 1020.58 1020.84 1021.12 1021.39 1021.73 1022.01 1022.41 1022.77 1023.09 1023.37 1023.64
1019.85 1020.30 1019.61 1019.53 1019.58 1020.24 1021.18 1021.44 1022.91 1024.25 1025.62 1025.37 1024.93 1022.91 1019.08 1018.16 1017.70 1017.40 1017.38 1017.47 1017.49 1017.48 1017.25 1017.27 1017.62 1017.98 1018.30 1018.87 1019.25 1019.53 1019.81 1020.15 1020.53 1020.74 1021.02 1021.25 1021.66 1021.99 1022.30 1022.59 1022.95 1023.29 1023.51 1023.74
1019.48 1019.61 1019.29 1019.26 1019.09 1019.36 1020.82 1021.29 1022.17 1023.90 1025.93 1025.54 1023.79 1021.66 1019.18 1017.91 1017.39 1017.01 1017.05 1017.29 1017.28 1017.21 1017.23 1017.38 1017.51 1017.85 1018.26 1018.69 1019.07 1019.50 1020.01 1020.51 1020.90 1021.16 1021.40 1021.45 1021.64 1022.05 1022.50 1022.87 1023.13 1023.44 1023.71 1023.88
1019.24 1019.55 1019.62 1019.38 1019.29 1019.44 1019.50 1020.36 1022.11 1023.63 1025.17 1025.02 1022.96 1021.55 1019.25 1017.93 1017.35 1017.07 1017.12 1017.34 1017.21 1017.06 1017.19 1017.33 1017.61 1017.80 1018.14 1018.60 1019.00 1019.51 1019.94 1020.36 1020.77 1021.18 1021.54 1021.90 1022.13 1022.39 1022.76 1023.18 1023.42 1023.51 1023.67 1023.81
1019.77 1019.68 1020.34 1019.81 1019.36 1019.26 1019.90 1020.20 1021.01 1022.06 1023.18 1023.26 1022.66 1020.14 1018.04 1017.47 1017.28 1017.14 1017.10 1017.07 1016.96 1017.01 1017.13 1017.33 1017.59 1017.85 1018.19 1018.47 1018.83 1019.11 1019.63 1020.06 1020.57 1021.05 1021.38 1021.68 1021.96 1022.34 1022.73 1023.05 1023.34 1023.53 1023.72 1023.84
1020.37 1020.27 1020.37 1019.85 1019.68 1019.60 1019.32 1019.48 1020.21 1021.16 1022.42 1022.46 1021.81 1018.69 1017.06 1016.95 1016.86 1016.79 1016.95 1016.68 1016.55 1016.57 1016.93 1017.14 1017.55 1017.71 1018.01 1018.36 1018.66 1018.92 1019.39 1019.86 1020.25 1020.62 1021.10 1021.45 1021.84 1022.28 1022.72 1023.05 1023.28 1023.53 1023.72 1023.96
1021.98 1020.68 1020.67 1020.64 1020.38 1020.12 1019.65 1019.60 1019.67 1020.28 1020.89 1020.79 1020.66 1017.59 1016.93 1016.67 1016.69 1016.68 1016.66 1016.56 1016.65 1016.55 1016.62 1017.03 1017.33 1017.65 1017.69 1017.84 1018.23 1018.60 1018.93 1019.21 1019.71 1020.34 1020.89 1021.38 1021.81 1022.21 1022.54 1022.84 1023.18 1023.48 1023.65 1023.81
1022.13 1021.36 1020.54 1020.00 1019.86 1019.69 1019.90 1019.50 1019.35 1019.75 1020.15 1019.17 1018.76 1016.64 1016.54 1016.62 1016.58 1016.48 1016.57 1016.60 1016.64 1016.51 1016.52 1016.83 1017.10 1017.21 1017.42 1017.52 1017.63 1018.09 1018.36 1018.73 1019.41 1020.05 1020.44 1020.74 1021.33 1021.72 1022.04 1022.42 1022.81 1023.09 1023.31 1023.59
1021.79 1022.16 1021.59 1020.78 1020.60 1020.49 1020.19 1019.88 1019.49 1019.41 1018.68 1018.96 1017.17 1016.79 1015.35 1015.96 1016.17 1016.23 1016.11 1016.30 1016.39 1015.99 1015.97 1016.08 1016.40 1016.61 1016.59 1017.06 1016.84 1016.98 1017.47 1018.06 1018.62 1019.25 1019.73 1019.83 1020.53 1021.13 1021.64 1022.10 1022.45 1022.79 1023.14 1023.43
1022.17 1022.50 1022.39 1022.24 1021.49 1020.85 1020.70 1019.95 1019.23 1019.09 1018.53 1018.17 1016.90 1016.21 1014.82 1014.55 1015.47 1015.61 1015.60 1015.88 1015.78 1015.42 1015.16 1014.88 1015.16 1015.33 1015.80 1015.86 1015.53 1016.11 1016.44 1016.96 1017.76 1018.43 1018.80 1019.26 1019.93 1020.56 1021.12 1021.76 1022.26 1022.65 1022.97 1023.27
1023.12 1023.26 1023.28 1023.51 1022.77 1021.54 1020.73 1019.11 1018.92 1018.36 1017.92 1017.86 1017.12 1015.20 1014.84 1014.36 1014.99 1014.79 1015.27 1015.25 1014.64 1014.10 1014.04 1013.94 1013.57 1013.75 1014.17 1014.23 1014.50 1015.48 1015.57 1016.17 1016.90 1017.46 1017.99 1018.53 1019.27 1020.09 1020.75 1021.32 1021.89 1022.34 1022.73 1023.09
1023.82 1023.85 1024.03 1024.65 1023.80 1022.74 1019.44 1017.76 1017.37 1017.68 1016.96 1016.44 1016.16 1014.94 1014.30 1014.00 1013.65 1013.66 1013.82 1013.65 1013.21 1013.23 1012.93 1012.63 1012.69 1012.78 1012.73 1013.08 1013.81 1014.35 1014.89 1015.41 1016.05 1016.65 1017.24 1017.91 1018.53 1019.23 1020.02 1020.70 1021.23 1021.72 1022.07 1022.40
1023.83 1024.38 1025.00 1025.77 1025.28 1022.81 1019.71 1017.73 1017.37 1017.16 1016.45 1015.74 1015.07 1014.24 1013.92 1013.23 1013.67 1012.83 1012.65 1012.44 1012.17 1011.99 1011.80 1011.69 1011.77 1012.00 1012.27 1012.72 1013.14 1013.84 1014.51 1014.98 1015.57 1015.97 1016.45 1017.07 1017.76 1018.64 1019.39 1019.99 1020.49 1021.02 1021.51 1021.97
1024.35 1024.67 1025.78 1027.06 1025.69 1023.12 1018.92 1017.71 1017.34 1017.23 1016.90 1015.52 1015.29 1014.78 1014.12 1013.99 1014.31 1012.23 1011.87 1012.06 1011.85 1011.57 1011.25 1011.36 1011.66 1012.09 1012.37 1012.51 1012.96 1013.61 1014.13 1014.68 1015.03 1015.18 1015.61 1016.29 1016.92 1017.53 1018.17 1018.76 1019.60 1020.28 1020.85 1021.39
1025.20 1025.25 1025.45 1025.90 1025.24 1022.37 1018.29 1018.14 1018.01 1018.07 1017.37 1016.32 1016.49 1016.20 1015.69 1015.26 1014.39 1013.06 1012.88 1012.30 1012.05 1012.08 1011.79 1011.72 1012.01 1012.30 1012.47 1012.75 1013.10 1013.43 1013.79 1013.88 1014.00 1014.74 1015.40 1016.00 1016.48 1016.95 1017.57 1018.46 1019.19 1019.89 1020.63 1021.27
1024.88 1024.92 1024.99 1024.91 1024.08 1021.07 1018.08 1018.41 1018.37 1017.20 1016.76 1016.53 1016.28 1016.08 1015.97 1015.43 1014.77 1014.47 1014.02 1013.67 1013.15 1012.73 1012.29 1012.05 1012.34 1012.59 1012.62 1012.86 1013.08 1013.31 1013.35 1013.19 1013.64 1014.20 1014.94 1015.63 1016.26 1016.84 1017.48 1018.16 1019.02 1019.65 1020.29 1021.01
1024.40 1023.04 1022.72 1022.77 1020.50 1018.00 1017.97 1017.74 1017.01 1017.29 1017.33 1016.61 1016.47 1015.85 1015.96 1015.67 1014.84 1014.37 1014.28 1014.13 1013.69 1013.12 1012.86 1012.93 1013.07 1012.85 1013.20 1013.62 1013.78 1013.59 1013.43 1013.71 1013.97 1014.54 1015.17 1015.59 1016.15 1016.63 1017.22 1017.85 1018.58 1019.33 1019.82 1020.40
1022.77 1021.85 1021.75 1021.16 1018.74 1017.85 1017.56 1017.49 1017.21 1017.03 1017.10 1016.84 1016.61 1016.25 1016.07 1015.84 1014.97 1014.59 1014.86 1014.55 1014.40 1013.83 1013.14 1013.05 1013.37 1013.85 1013.77 1014.03 1014.21 1014.50 1014.53 1014.59 1014.80 1015.05 1015.75 1016.13 1016.41 1016.81 1017.23 1017.77 1018.32 1018.77 1019.51 1020.13
1022.70 1022.01 1021.23 1020.07 1018.49 1017.42 1017.40 1017.18 1017.27 1017.19 1017.10 1016.89 1016.54 1016.43 1016.34 1016.29 1015.59 1015.50 1015.10 1014.65 1014.41 1013.98 1013.43 1013.37 1013.56 1013.65 1013.73 1014.03 1014.15 1014.45 1014.60 1015.19 1015.46 1015.36 1015.84 1016.51 1016.80 1017.09 1017.53 1018.06 1018.27 1018.72 1019.47 1019.71
1021.33 1020.37 1020.25 1019.11 1018.16 1018.26 1017.87 1017.53 1017.68 1017.88 1017.83 1017.65 1017.69 1017.15 1016.72 1016.77 1016.40 1016.16 1015.77 1015.43 1015.28 1015.01 1014.49 1013.83 1013.53 1013.86 1013.80 1013.98 1014.11 1014.32 1014.51 1015.02 1015.51 1015.72 1016.01 1016.43 1016.79 1017.16 1017.55 1018.02 1018.66 1018.97 1019.42 1020.09
Wind_Speed
2 5 7 8 6 3 5 4 5 3 3 1 3 5 11 3 3 6 8 7 7 11 10 7 7 6 6 5 7 8 7 5 3 1 1 1 1 0 1 2 4 3 3 5
4 6 5 6 7 5 5 5 3 1 3 2 4 8 10 4 6 7 9 9 11 7 10 8 8 7 8 8 7 7 7 6 4 2 2 2 2 2 3 3 4 5 4 4
5 3 6 6 5 6 1 6 5 3 1 3 3 7 6 4 4 4 8 12 10 15 14 10 8 9 6 8 8 8 6 6 4 4 3 2 3 2 2 2 2 4 5 5
2 0 6 4 5 6 6 6 6 6 4 4 2 8 6 6 6 6 12 10 14 14 10 8 7 7 10 11 6 6 6 5 4 6 5 5 4 4 1 2 3 3 5 6
4 7 6 3 5 6 3 5 7 3 5 2 3 3 7 3 6 12 11 11 13 9 7 9 10 12 10 7 9 6 6 5 4 4 5 4 3 2 3 4 6 4 4 5
3 2 4 6 2 5 9 7 8 5 3 2 7 7 5 6 8 7 5 5 6 7 6 7 8 7 5 6 8 6 6 4 3 4 4 6 7 8 6 5 4 3 2 3
1 3 2 4 7 4 3 6 3 3 1 7 1 4 11 4 10 12 9 4 7 7 7 7 7 5 4 6 6 5 6 5 4 4 3 4 6 8 8 7 5 5 3 2
6 2 7 4 6 8 5 5 6 8 6 3 2 9 8 9 10 9 7 7 7 8 7 7 6 5 5 6 6 7 7 6 5 5 4 4 4 3 3 4 3 3 2 3
5 3 1 2 4 9 6 6 5 7 3 3 5 8 10 7 13 7 8 5 7 7 6 6 3 4 5 7 8 7 5 4 4 4 4 5 5 6 6 5 4 4 4 3
3 3 1 3 3 2 6 9 3 3 2 4 4 5 7 4 5 7 6 6 7 6 6 4 3 5 4 5 5 6 6 7 6 6 5 4 4 4 5 4 5 5 4 4
1 1 1 3 8 8 4 3 3 5 5 6 2 7 7 5 4 6 7 7 6 7 7 5 4 4 5 5 7 7 7 7 6 6 5 6 5 5 5 4 4 4 3 4
2 2 4 6 2 2 2 5 5 5 4 3 2 9 6 7 5 5 5 3 3 3 4 3 5 5 6 7 7 8 6 6 7 7 6 6 6 6 5 5 5 5 5 4
7 4 4 1 2 3 5 3 6 5 3 7 6 9 2 4 5 5 6 5 4 2 5 4 4 6 7 8 8 8 8 9 8 7 7 5 6 6 6 6 6 5 6 6
2 3 3 6 3 3 5 6 10 9 5 14 12 22 6 2 4 5 5 5 6 7 7 6 6 7 7 7 8 8 9 9 7 8 9 9 9 8 8 7 7 7 6 7
6 3 4 5 4 3 4 2 7 14 20 11 20 17 18 12 12 13 10 6 8 11 10 9 8 8 8 8 8 9 9 9 9 10 10 11 9 8 7 8 8 7 7 6
2 3 2 3 4 3 2 9 8 9 15 12 21 21 20 18 4 7 11 8 10 13 15 13 10 9 10 11 9 8 11 11 11 12 12 9 10 10 9 8 8 7 7 7
2 1 2 5 3 2 6 7 10 9 11 6 13 21 17 19 11 15 9 11 17 18 16 15 16 12 10 10 7 10 10 7 11 12 10 11 10 10 10 9 9 8 8 7
1 1 2 3 3 1 9 6 8 12 15 15 17 22 24 23 22 10 11 16 18 16 15 16 14 10 8 5 8 7 7 9 11 11 10 10 12 12 10 10 10 8 8 10
6 1 2 4 2 6 11 7 8 9 10 14 18 18 20 22 8 12 15 16 18 17 18 16 11 9 5 7 7 7 7 7 7 9 11 11 11 11 11 12 12 9 9 8
6 4 4 1 4 6 10 4 3 3 7 10 5 13 15 3 6 15 10 7 13 15 12 11 6 4 6 5 5 6 7 7 10 10 10 11 12 13 14 13 13 8 8 9
3 3 10 4 4 9 10 5 1 5 7 4 6 10 13 5 7 14 8 6 5 8 10 6 4 7 7 5 5 7 7 11 6 7 7 9 10 11 11 10 8 9 9 8
8 6 5 3 3 10 4 2 7 5 9 17 12 8 9 10 11 13 11 10 10 10 10 7 6 7 5 5 6 7 9 6 7 8 8 8 8 7 8 11 9 9 9 9
4 7 5 9 10 4 6 8 7 2 10 14 11 15 6 10 10 12 11 10 8 10 8 5 6 7 5 5 5 7 3 4 6 6 6 7 7 7 9 10 10 9 10 9
5 4 5 1 8 12 10 8 6 4 7 11 13 12 7 9 10 8 10 8 7 7 7 2 1 7 8 2 3 3 0 3 4 4 4 5 7 7 7 6 7 8 8 8
7 3 4 8 13 12 10 7 7 6 7 8 8 5 6 6 14 7 9 9 8 7 4 2 5 7 9 5 5 3 4 5 4 5 5 5 4 6 6 4 5 6 5 9
8 8 5 7 9 8 9 8 4 6 9 6 4 9 9 5 10 8 11 7 6 10 6 5 5 7 5 5 5 4 5 6 7 5 5 5 5 5 5 6 4 7 9 12
Wind_Direction
2 135 190 182 189 130 121 121 167 240 355 167 224 261 269 328 290 263 251 247 247 246 253 233 243 233 222 210 199 191 171 181 163 165 178 226 242 148 90 36 5 328 252 225
90 225 187 157 143 138 139 139 191 26 14 98 8 276 270 239 240 222 238 243 241 246 257 241 230 220 211 214 204 179 192 178 179 170 175 146 144 105 101 89 51 30 40 51
166 194 168 138 142 141 100 158 168 161 65 59 329 277 254 274 250 250 256 244 247 236 247 252 234 225 220 222 201 195 185 182 178 178 140 111 96 102 135 110 68 30 50 59
224 112 143 118 174 135 191 181 148 138 103 236 8 279 279 265 273 264 254 246 248 245 247 249 240 228 216 220 182 191 185 178 183 177 188 178 175 172 174 114 109 79 59 68
221 166 151 144 188 157 219 148 148 128 107 91 339 307 272 0 299 260 251 245 249 254 241 253 243 233 229 175 187 174 175 184 184 190 197 187 165 133 132 128 123 105 75 65
147 187 152 159 124 139 142 92 51 53 75 317 191 171 226 189 210 274 249 242 269 280 262 260 266 265 217 172 162 164 166 167 170 180 189 192 172 155 150 157 149 133 96 70
125 193 164 125 92 46 101 102 38 15 10 230 347 172 259 259 234 230 259 297 287 282 285 272 279 256 231 189 156 151 160 168 168 159 155 176 168 166 167 165 161 160 151 132
156 260 164 188 164 167 182 154 160 193 196 220 86 234 254 236 286 274 278 277 284 276 267 273 287 246 205 177 169 165 173 167 159 144 140 128 138 144 146 158 157 160 156 139
143 253 69 168 162 147 194 206 155 106 44 48 214 282 285 273 276 277 279 313 289 300 307 295 268 208 193 178 180 180 164 148 160 139 142 145 145 148 157 154 151 148 139 139
205 147 53 174 123 24 159 153 99 10 136 259 266 271 237 272 241 302 330 291 296 323 318 299 238 204 197 189 169 161 169 175 170 162 165 156 139 134 139 142 152 156 140 124
227 94 5 134 214 167 144 173 141 129 155 181 247 257 214 226 254 264 293 284 287 301 302 288 250 219 201 179 177 182 181 176 172 177 172 161 160 152 150 157 153 146 137 141
204 154 181 192 11 5 313 191 162 142 225 223 171 258 197 208 216 181 269 229 255 288 276 292 264 212 192 197 192 195 186 185 189 182 175 178 159 155 155 160 162 160 153 150
349 206 144 24 355 6 219 170 194 116 112 203 160 259 51 226 237 265 286 310 273 280 1 301 260 241 220 202 198 198 198 202 193 178 174 172 174 168 172 169 167 167 163 163
2 284 244 193 140 137 188 197 195 197 200 244 231 267 256 311 268 276 295 261 268 276 256 265 265 248 241 222 202 206 213 199 182 181 186 186 186 183 180 173 176 177 177 171
134 291 300 336 346 352 351 278 211 210 229 224 254 249 261 241 248 269 247 229 242 253 259 233 244 249 235 234 217 208 214 195 186 191 198 200 184 181 172 175 179 176 175 174
32 194 127 339 344 117 315 271 251 240 253 250 254 263 263 267 246 247 244 232 241 244 252 254 229 227 225 222 215 204 213 203 182 199 207 187 180 178 181 176 175 174 176 170
136 185 89 262 302 115 334 224 215 249 239 222 247 259 278 278 252 255 247 230 241 243 246 254 258 235 225 219 201 213 215 170 190 200 199 188 179 180 180 173 171 176 174 166
144 100 102 250 26 188 245 221 195 216 240 234 245 255 263 268 270 256 219 234 240 245 245 246 254 254 246 213 197 209 187 188 192 197 192 180 182 183 172 169 177 176 174 179
179 131 333 134 219 294 306 258 182 165 256 234 233 247 256 263 303 271 238 238 243 241 247 253 245 236 226 216 210 194 192 190 183 194 193 187 179 173 172 180 182 181 179 184
175 190 134 357 156 202 235 31 9 73 273 315 230 250 257 289 262 272 305 240 241 243 241 250 246 237 232 245 178 182 194 185 205 198 187 177 179 180 185 183 182 179 181 175
160 193 216 206 227 271 262 249 246 150 253 324 4 324 312 271 247 288 325 289 258 263 274 281 227 231 235 215 186 210 196 214 198 165 164 172 180 181 180 173 169 161 165 159
179 165 201 158 199 267 172 153 196 218 327 306 297 254 268 281 295 300 296 293 290 286 290 275 270 258 234 212 189 213 217 186 169 161 165 169 166 165 159 158 156 160 158 156
260 195 191 186 218 228 186 213 247 283 263 289 288 289 248 273 294 308 301 306 301 298 295 298 278 281 257 247 230 231 253 157 144 141 152 153 151 153 156 157 158 159 165 166
264 220 234 205 273 256 280 292 258 266 255 283 288 283 285 282 282 289 283 290 296 295 298 248 275 281 282 267 286 281 85 116 132 130 137 143 151 150 156 162 167 165 172 174
209 170 208 263 280 292 264 261 277 288 292 299 298 286 292 294 305 285 297 304 298 292 287 241 244 243 252 220 217 204 156 149 153 137 144 157 147 157 146 140 159 167 185 184
187 211 189 227 246 247 274 298 289 279 288 301 324 315 306 288 298 309 301 300 296 309 314 295 257 258 256 219 216 202 177 174 164 156 154 155 152 151 146 144 132 173 175 191